loading
DOY 173 | 2024-06-21T04:11:25Z

DELTA 1 DEB (YO), 227

Orbit data source: Space-Track

DELTA 1 DEB (YO), 227 is space debris in LEO originally from a launch on Thu, 08 Feb 1962 UTC launched from the Air Force Eastern Test Range (AFETR). Debris objects in space refer to the collection of defunct objects orbiting the Earth. Examples of debris include non-operational satellites, rocket bodies, and fragments generated from explosions, collisions, or faulty payload assembly.

Loading next visibility...
Loading greatness...
DELTA 1 DEB (YO) details
NORAD ID227
COSPAR ID
1962-002B
Orbit
LEO
Last TLE update2 days ago
Origin
Flag of USGSFC (US)
ManufacturerRCA/East Windsor
BusUnknown
MotorUnknown
Mass~1 kg wet, ~1 kg dry
Launch date (UTC)
1962-02-08 (62 years ago)
Launch vehicleUnknown
Launch site
Air Force Eastern Test Range (AFETR)
Object type
Payload
Rocket body
Debris
Radar Cross SectionSmall (<0.1 m²)
Predictive object data (real-time)
Latitude-17.27758°
Longitude78.65608°
Altitude787.157 km
Speed7.449 km/s
Apparent Right ascension11h 09m 23s
Apparent Declination-64° 39' 06"
Sunlit
Object is in full shadow
Predictive observer data (real-time)
Local Sidereal Time15:10:23
Azimuth204.137° SW
Elevation-24.641°
Doppler factor1
Orbital elements
Apogee854.04 km
Perigee668.509 km
Semi-major axis7,139.412 km
Eccentricity0.0129934
Inclination48.1493°
RAAN16.7109°
Arg. of periapsis301.7751°
True anomaly58.31462°
Mean anomaly57.0541°
Mean motion3.5979 °/min
BSTAR0.000095912
Period100.06 mins
Definitive object data (Epoch: 2024-06-19T14:35:12.414Z)
Latitude0.00007°
Longitude-110.4025°
Altitude710.991 km
Speed7.528 km/s
True Right ascension01h 06m 50s
True Declination0° 00' 00"
Sunlit
Object was in daylight at TLE epoch
TLE from 2 days ago
0 DELTA 1 DEB (YO)
1 00227U 62002B   24171.60778257  .00000159  00000-0  95912-4 0  9993
2 00227  48.1493  16.7109 0129934 301.7751  57.0541 14.39474506239423
Epoch: 2024-06-19T14:35Z
No data available

DELTA 1 DEB (YO) Visibility forecast

Observer location: 39.9160978°, -105.1181434, 0m alt.

DELTA 1 DEB (YO) is not visible in the next 10 days
Span
Click to sort rows by Start time (UTC) header in descending order
Start Az.
Max El. time (UTC)
Max El. Az.
Max El.
End time (UTC)
End Az.